Time,TemperatureF,DewpointF,PressureIn,WindDirection,WindDirectionDegrees,WindSpeedMPH,WindSpeedGustMPH,Humidity,HourlyPrecipIn,Conditions,Clouds,dailyrainin,SoftwareType,DateUTC
2013-01-24 00:00:00,50.4,45.4,30.28,North,360,0.0,0.0,83,0.00,,---,0.00,VWS V13.01,2013-01-24 05:00:00,
2013-01-24 00:01:00,50.4,45.4,30.27,North,360,0.0,0.0,83,0.00,,---,0.00,VWS V13.01,2013-01-24 05:01:00,
2013-01-24 00:02:00,50.4,45.4,30.27,North,360,0.0,0.0,83,0.00,,---,0.00,VWS V13.01,2013-01-24 05:02:00,
2013-01-24 00:03:00,50.4,45.4,30.27,North,360,0.0,0.0,83,0.00,,---,0.00,VWS V13.01,2013-01-24 05:03:00,
2013-01-24 00:08:00,50.4,45.8,30.27,North,360,0.0,0.0,84,0.00,,---,0.00,VWS V13.01,2013-01-24 05:08:00,
2013-01-24 00:13:00,50.3,45.7,30.27,North,360,0.0,0.0,84,0.00,,---,0.00,VWS V13.01,2013-01-24 05:13:00,
2013-01-24 00:18:00,50.3,45.7,30.27,North,360,0.0,0.0,84,0.00,,---,0.00,VWS V13.01,2013-01-24 05:18:00,
2013-01-24 00:23:00,50.2,45.6,30.27,North,360,0.0,0.0,84,0.00,,---,0.00,VWS V13.01,2013-01-24 05:23:00,
2013-01-24 00:28:00,50.2,45.6,30.27,North,360,0.0,0.0,84,0.00,,---,0.00,VWS V13.01,2013-01-24 05:28:00,
2013-01-24 00:33:00,50.1,45.5,30.27,North,360,0.0,0.0,84,0.00,,---,0.00,VWS V13.01,2013-01-24 05:33:00,
2013-01-24 00:38:00,50.1,45.5,30.27,North,360,0.0,0.0,84,0.00,,---,0.00,VWS V13.01,2013-01-24 05:38:00,
2013-01-24 00:43:00,50.1,45.5,30.27,North,360,0.0,0.0,84,0.00,,---,0.00,VWS V13.01,2013-01-24 05:43:00,
2013-01-24 00:48:00,50.1,45.5,30.27,North,360,0.0,0.0,84,0.00,,---,0.00,VWS V13.01,2013-01-24 05:48:00,
2013-01-24 00:54:00,50.0,45.7,30.26,North,360,0.0,0.0,85,0.00,,---,0.00,VWS V13.01,2013-01-24 05:54:00,
2013-01-24 00:58:00,49.9,45.6,30.26,North,360,0.0,0.0,85,0.00,,---,0.00,VWS V13.01,2013-01-24 05:58:00,
2013-01-24 01:03:00,49.8,45.5,30.26,North,360,0.0,0.0,85,0.00,,---,0.00,VWS V13.01,2013-01-24 06:03:00,
2013-01-24 01:09:00,49.7,45.4,30.26,North,360,0.0,0.0,85,0.00,,---,0.00,VWS V13.01,2013-01-24 06:09:00,
2013-01-24 01:14:00,49.8,45.5,30.25,North,360,0.0,0.0,85,0.00,,---,0.00,VWS V13.01,2013-01-24 06:14:00,
2013-01-24 01:19:00,49.7,45.4,30.25,North,360,0.0,0.0,85,0.00,,---,0.00,VWS V13.01,2013-01-24 06:19:00,
2013-01-24 01:24:00,49.7,45.4,30.25,North,360,0.0,0.0,85,0.00,,---,0.00,VWS V13.01,2013-01-24 06:24:00,
2013-01-24 01:29:00,49.6,45.3,30.25,North,360,0.0,0.0,85,0.00,,---,0.00,VWS V13.01,2013-01-24 06:29:00,
2013-01-24 01:34:00,49.5,45.2,30.25,North,360,0.0,0.0,85,0.00,,---,0.00,VWS V13.01,2013-01-24 06:34:00,
2013-01-24 01:39:00,49.4,45.4,30.25,North,360,0.0,0.0,86,0.00,,---,0.00,VWS V13.01,2013-01-24 06:39:00,
2013-01-24 01:44:00,49.6,45.9,30.25,North,360,0.0,0.0,87,0.00,,---,0.00,VWS V13.01,2013-01-24 06:44:00,
2013-01-24 01:49:00,49.7,46.0,30.25,North,360,0.0,0.0,87,0.00,,---,0.00,VWS V13.01,2013-01-24 06:49:00,
2013-01-24 01:54:00,49.7,46.0,30.24,North,360,0.0,0.0,87,0.00,,---,0.00,VWS V13.01,2013-01-24 06:54:00,
2013-01-24 01:59:00,49.9,46.5,30.24,North,360,0.0,0.0,88,0.00,,---,0.00,VWS V13.01,2013-01-24 06:59:00,
2013-01-24 02:04:00,49.9,46.5,30.24,North,360,0.0,0.0,88,0.00,,---,0.00,VWS V13.01,2013-01-24 07:04:00,
2013-01-24 02:09:00,49.7,46.3,30.24,North,360,0.0,0.0,88,0.00,,---,0.00,VWS V13.01,2013-01-24 07:09:00,
2013-01-24 02:14:00,49.7,46.3,30.24,North,360,0.0,0.0,88,0.00,,---,0.00,VWS V13.01,2013-01-24 07:14:00,
2013-01-24 02:20:00,49.6,46.2,30.24,North,360,0.0,0.0,88,0.00,,---,0.00,VWS V13.01,2013-01-24 07:20:00,
2013-01-24 02:25:00,49.4,46.0,30.24,North,360,0.0,0.0,88,0.00,,---,0.00,VWS V13.01,2013-01-24 07:25:00,
2013-01-24 02:30:00,49.2,45.8,30.24,North,360,0.0,0.0,88,0.00,,---,0.00,VWS V13.01,2013-01-24 07:30:00,
2013-01-24 02:35:00,49.1,45.7,30.23,North,360,0.0,0.0,88,0.00,,---,0.00,VWS V13.01,2013-01-24 07:35:00,
2013-01-24 02:40:00,49.0,45.6,30.23,North,360,0.0,0.0,88,0.00,,---,0.00,VWS V13.01,2013-01-24 07:40:00,
2013-01-24 02:45:00,48.9,45.2,30.23,North,360,0.0,0.0,87,0.00,,---,0.00,VWS V13.01,2013-01-24 07:45:00,
2013-01-24 02:50:00,48.8,45.1,30.23,North,360,0.0,0.0,87,0.00,,---,0.00,VWS V13.01,2013-01-24 07:50:00,
2013-01-24 02:55:00,48.6,44.9,30.23,North,360,0.0,0.0,87,0.00,,---,0.00,VWS V13.01,2013-01-24 07:55:00,
2013-01-24 03:00:00,48.6,44.9,30.23,North,360,0.0,0.0,87,0.00,,---,0.00,VWS V13.01,2013-01-24 08:00:00,
2013-01-24 03:05:00,48.5,44.8,30.23,North,360,0.0,0.0,87,0.00,,---,0.00,VWS V13.01,2013-01-24 08:05:00,
2013-01-24 03:10:00,48.4,44.7,30.22,North,360,0.0,0.0,87,0.00,,---,0.00,VWS V13.01,2013-01-24 08:10:00,
2013-01-24 03:15:00,48.2,44.5,30.23,North,360,0.0,0.0,87,0.00,,---,0.00,VWS V13.01,2013-01-24 08:15:00,
2013-01-24 03:20:00,48.0,44.3,30.23,North,360,0.0,0.0,87,0.00,,---,0.00,VWS V13.01,2013-01-24 08:20:00,
2013-01-24 03:25:00,47.9,44.2,30.23,North,360,0.0,0.0,87,0.00,,---,0.00,VWS V13.01,2013-01-24 08:25:00,
2013-01-24 03:30:00,47.8,44.1,30.22,North,360,0.0,0.0,87,0.00,,---,0.00,VWS V13.01,2013-01-24 08:30:00,
2013-01-24 03:35:00,47.8,44.1,30.22,North,360,0.0,0.0,87,0.00,,---,0.00,VWS V13.01,2013-01-24 08:35:00,
2013-01-24 03:41:00,47.8,44.1,30.23,North,360,0.0,0.0,87,0.00,,---,0.00,VWS V13.01,2013-01-24 08:41:00,
2013-01-24 03:46:00,47.7,44.0,30.23,North,360,0.0,0.0,87,0.00,,---,0.00,VWS V13.01,2013-01-24 08:46:00,
2013-01-24 03:51:00,47.7,44.3,30.23,North,360,0.0,0.0,88,0.00,,---,0.00,VWS V13.01,2013-01-24 08:51:00,
2013-01-24 03:56:00,47.6,44.2,30.23,North,360,0.0,0.0,88,0.00,,---,0.00,VWS V13.01,2013-01-24 08:56:00,
2013-01-24 04:01:00,47.6,44.2,30.23,North,360,0.0,0.0,88,0.00,,---,0.00,VWS V13.01,2013-01-24 09:01:00,
2013-01-24 04:06:00,47.7,44.6,30.23,North,360,0.0,0.0,89,0.00,,---,0.00,VWS V13.01,2013-01-24 09:06:00,
2013-01-24 04:11:00,47.8,44.7,30.23,North,360,0.0,0.0,89,0.00,,---,0.00,VWS V13.01,2013-01-24 09:11:00,
2013-01-24 04:16:00,47.8,44.7,30.24,North,360,0.0,0.0,89,0.00,,---,0.00,VWS V13.01,2013-01-24 09:16:00,
2013-01-24 04:21:00,47.8,44.7,30.24,North,360,0.0,0.0,89,0.00,,---,0.00,VWS V13.01,2013-01-24 09:21:00,
2013-01-24 04:26:00,47.8,44.4,30.24,North,360,0.0,0.0,88,0.00,,---,0.00,VWS V13.01,2013-01-24 09:26:00,
2013-01-24 04:31:00,47.7,44.3,30.24,North,360,0.0,0.0,88,0.00,,---,0.00,VWS V13.01,2013-01-24 09:31:00,
2013-01-24 04:37:00,47.8,44.7,30.24,North,360,0.0,0.0,89,0.00,,---,0.00,VWS V13.01,2013-01-24 09:37:00,
2013-01-24 04:42:00,48.2,45.1,30.24,North,360,0.0,0.0,89,0.00,,---,0.00,VWS V13.01,2013-01-24 09:42:00,
2013-01-24 04:47:00,48.4,45.3,30.24,North,360,0.0,0.0,89,0.00,,---,0.00,VWS V13.01,2013-01-24 09:47:00,
2013-01-24 04:52:00,48.4,45.3,30.24,North,360,0.0,0.0,89,0.00,,---,0.00,VWS V13.01,2013-01-24 09:52:00,
2013-01-24 04:57:00,48.4,45.0,30.24,North,360,0.0,0.0,88,0.00,,---,0.00,VWS V13.01,2013-01-24 09:57:00,
2013-01-24 05:02:00,48.3,44.9,30.23,North,360,0.0,0.0,88,0.00,,---,0.00,VWS V13.01,2013-01-24 10:02:00,
2013-01-24 05:07:00,48.2,44.8,30.24,North,360,0.0,0.0,88,0.00,,---,0.00,VWS V13.01,2013-01-24 10:07:00,
2013-01-24 05:12:00,48.1,44.7,30.24,North,360,0.0,0.0,88,0.00,,---,0.00,VWS V13.01,2013-01-24 10:12:00,
2013-01-24 05:17:00,48.0,44.6,30.24,North,360,0.0,0.0,88,0.00,,---,0.00,VWS V13.01,2013-01-24 10:17:00,
2013-01-24 05:22:00,48.1,45.0,30.25,North,360,0.0,0.0,89,0.00,,---,0.00,VWS V13.01,2013-01-24 10:22:00,
2013-01-24 05:27:00,48.1,45.0,30.25,North,360,0.0,0.0,89,0.00,,---,0.00,VWS V13.01,2013-01-24 10:27:00,
2013-01-24 05:32:00,47.9,44.8,30.25,North,360,0.0,0.0,89,0.00,,---,0.00,VWS V13.01,2013-01-24 10:32:00,
2013-01-24 05:37:00,47.9,44.5,30.25,North,360,0.0,0.0,88,0.00,,---,0.00,VWS V13.01,2013-01-24 10:37:00,
2013-01-24 05:42:00,47.8,44.4,30.25,North,360,0.0,0.0,88,0.00,,---,0.00,VWS V13.01,2013-01-24 10:42:00,
2013-01-24 05:48:00,47.7,44.0,30.25,North,360,0.0,0.0,87,0.00,,---,0.00,VWS V13.01,2013-01-24 10:48:00,
2013-01-24 05:53:00,47.6,43.9,30.25,North,360,0.0,0.0,87,0.00,,---,0.00,VWS V13.01,2013-01-24 10:53:00,
2013-01-24 05:58:00,47.6,43.9,30.25,North,360,0.0,0.0,87,0.00,,---,0.00,VWS V13.01,2013-01-24 10:58:00,
2013-01-24 06:03:00,47.5,43.8,30.26,North,360,0.0,0.0,87,0.00,,---,0.00,VWS V13.01,2013-01-24 11:03:00,
2013-01-24 06:08:00,47.4,43.4,30.25,North,360,0.0,0.0,86,0.00,,---,0.00,VWS V13.01,2013-01-24 11:08:00,
2013-01-24 06:13:00,47.4,43.4,30.25,North,360,0.0,0.0,86,0.00,,---,0.00,VWS V13.01,2013-01-24 11:13:00,
2013-01-24 06:18:00,47.4,43.1,30.26,North,360,0.0,0.0,85,0.00,,---,0.00,VWS V13.01,2013-01-24 11:18:00,
2013-01-24 06:23:00,47.4,43.1,30.26,North,360,0.0,0.0,85,0.00,,---,0.00,VWS V13.01,2013-01-24 11:23:00,
2013-01-24 06:28:00,47.3,42.7,30.26,North,360,0.0,0.0,84,0.00,,---,0.00,VWS V13.01,2013-01-24 11:28:00,
2013-01-24 06:33:00,47.4,42.8,30.26,North,360,0.0,0.0,84,0.00,,---,0.00,VWS V13.01,2013-01-24 11:33:00,
2013-01-24 06:38:00,47.6,43.0,30.26,North,360,0.0,0.0,84,0.00,,---,0.00,VWS V13.01,2013-01-24 11:38:00,
2013-01-24 06:43:00,47.8,43.2,30.26,North,360,0.0,0.0,84,0.00,,---,0.00,VWS V13.01,2013-01-24 11:43:00,
2013-01-24 06:48:00,48.2,43.6,30.27,North,360,0.0,0.0,84,0.00,,---,0.00,VWS V13.01,2013-01-24 11:48:00,
2013-01-24 06:53:00,48.6,44.0,30.27,North,360,0.0,0.0,84,0.00,,---,0.00,VWS V13.01,2013-01-24 11:53:00,
2013-01-24 06:58:00,48.7,44.1,30.27,North,360,0.0,0.0,84,0.00,,---,0.00,VWS V13.01,2013-01-24 11:58:00,
2013-01-24 07:03:00,48.9,44.6,30.27,North,360,0.0,0.0,85,0.00,,---,0.00,VWS V13.01,2013-01-24 12:03:00,
2013-01-24 07:09:00,49.0,44.7,30.27,North,360,0.0,0.0,85,0.00,,---,0.00,VWS V13.01,2013-01-24 12:09:00,
2013-01-24 07:14:00,49.1,45.1,30.27,North,360,0.0,0.0,86,0.00,,---,0.00,VWS V13.01,2013-01-24 12:14:00,
2013-01-24 07:19:00,49.1,45.1,30.26,North,360,0.0,0.0,86,0.00,,---,0.00,VWS V13.01,2013-01-24 12:19:00,
2013-01-24 07:24:00,49.1,45.1,30.27,North,360,0.0,0.0,86,0.00,,---,0.00,VWS V13.01,2013-01-24 12:24:00,
2013-01-24 07:29:00,49.1,45.1,30.27,North,360,0.0,0.0,86,0.00,,---,0.00,VWS V13.01,2013-01-24 12:29:00,
2013-01-24 07:34:00,49.1,45.4,30.27,North,360,0.0,0.0,87,0.00,,---,0.00,VWS V13.01,2013-01-24 12:34:00,
2013-01-24 07:39:00,49.1,45.4,30.27,North,360,0.0,0.0,87,0.00,,---,0.00,VWS V13.01,2013-01-24 12:39:00,
2013-01-24 07:44:00,49.1,45.4,30.27,North,360,0.0,0.0,87,0.00,,---,0.00,VWS V13.01,2013-01-24 12:44:00,
2013-01-24 07:49:00,49.2,45.8,30.27,North,360,0.0,0.0,88,0.00,,---,0.00,VWS V13.01,2013-01-24 12:49:00,
2013-01-24 07:54:00,49.4,46.0,30.27,North,360,0.0,0.0,88,0.00,,---,0.00,VWS V13.01,2013-01-24 12:54:00,
2013-01-24 07:59:00,49.8,46.7,30.27,North,360,0.0,0.0,89,0.00,,---,0.00,VWS V13.01,2013-01-24 12:59:00,
2013-01-24 08:05:00,50.2,47.1,30.27,North,360,0.0,0.0,89,0.00,,---,0.00,VWS V13.01,2013-01-24 13:05:00,
2013-01-24 08:10:00,50.7,47.6,30.28,North,360,0.0,0.0,89,0.00,,---,0.00,VWS V13.01,2013-01-24 13:10:00,
2013-01-24 08:15:00,51.3,48.2,30.28,North,360,0.0,0.0,89,0.00,,---,0.00,VWS V13.01,2013-01-24 13:15:00,
2013-01-24 08:20:00,51.9,48.8,30.28,North,9,0.0,0.0,89,0.00,,---,0.00,VWS V13.01,2013-01-24 13:20:00,
2013-01-24 08:25:00,52.5,49.4,30.28,North,9,0.0,0.0,89,0.00,,---,0.00,VWS V13.01,2013-01-24 13:25:00,
2013-01-24 08:30:00,53.1,49.7,30.28,North,9,0.0,0.0,88,0.00,,---,0.00,VWS V13.01,2013-01-24 13:30:00,
2013-01-24 08:35:00,53.6,50.1,30.28,North,5,0.0,0.0,88,0.00,,---,0.00,VWS V13.01,2013-01-24 13:35:00,
2013-01-24 08:40:00,54.0,50.2,30.28,North,5,0.0,0.0,87,0.00,,---,0.00,VWS V13.01,2013-01-24 13:40:00,
2013-01-24 08:45:00,54.4,50.3,30.28,North,5,0.0,0.0,86,0.00,,---,0.00,VWS V13.01,2013-01-24 13:45:00,
2013-01-24 08:50:00,54.9,50.8,30.29,North,5,0.0,0.0,86,0.00,,---,0.00,VWS V13.01,2013-01-24 13:50:00,
2013-01-24 08:55:00,55.3,50.9,30.29,North,360,0.0,7.0,85,0.00,,---,0.00,VWS V13.01,2013-01-24 13:55:00,
2013-01-24 09:00:00,56.2,51.4,30.29,North,5,0.0,1.0,84,0.00,,---,0.00,VWS V13.01,2013-01-24 14:00:00,
2013-01-24 09:06:00,57.0,51.9,30.29,North,10,1.0,4.0,83,0.00,,---,0.00,VWS V13.01,2013-01-24 14:06:00,
2013-01-24 09:11:00,57.8,52.0,30.30,NNE,17,2.0,6.0,81,0.00,,---,0.00,VWS V13.01,2013-01-24 14:11:00,
2013-01-24 09:16:00,58.6,52.5,30.30,NNE,16,0.0,6.0,80,0.00,,---,0.00,VWS V13.01,2013-01-24 14:16:00,
2013-01-24 09:21:00,59.3,52.8,30.30,NNE,15,2.0,6.0,79,0.00,,---,0.00,VWS V13.01,2013-01-24 14:21:00,
2013-01-24 09:26:00,60.0,53.1,30.30,NNE,13,0.0,6.0,78,0.00,,---,0.00,VWS V13.01,2013-01-24 14:26:00,
2013-01-24 09:31:00,60.5,52.5,30.30,North,9,0.0,5.0,75,0.00,,---,0.00,VWS V13.01,2013-01-24 14:31:00,
2013-01-24 09:36:00,61.2,52.9,30.30,North,11,0.0,5.0,74,0.00,,---,0.00,VWS V13.01,2013-01-24 14:36:00,
2013-01-24 09:41:00,61.7,53.0,30.30,North,11,3.0,6.0,73,0.00,,---,0.00,VWS V13.01,2013-01-24 14:41:00,
2013-01-24 09:46:00,62.3,53.2,30.30,NNE,13,0.0,6.0,72,0.00,,---,0.00,VWS V13.01,2013-01-24 14:46:00,
2013-01-24 09:51:00,62.7,53.2,30.31,North,11,1.0,6.0,71,0.00,,---,0.00,VWS V13.01,2013-01-24 14:51:00,
2013-01-24 09:56:00,63.1,53.2,30.31,North,5,4.0,6.0,70,0.00,,---,0.00,VWS V13.01,2013-01-24 14:56:00,
2013-01-24 10:01:00,63.4,52.3,30.31,North,11,4.0,5.0,67,0.00,,---,0.00,VWS V13.01,2013-01-24 15:01:00,
2013-01-24 10:06:00,63.8,52.2,30.31,NNE,21,4.0,6.0,66,0.00,,---,0.00,VWS V13.01,2013-01-24 15:06:00,
2013-01-24 10:11:00,64.0,52.0,30.31,NNE,24,5.0,6.0,65,0.00,,---,0.00,VWS V13.01,2013-01-24 15:11:00,
2013-01-24 10:16:00,64.4,50.7,30.31,NNE,28,0.0,10.0,61,0.00,,---,0.00,VWS V13.01,2013-01-24 15:16:00,
2013-01-24 10:21:00,64.8,50.6,30.31,NNE,20,1.0,10.0,60,0.00,,---,0.00,VWS V13.01,2013-01-24 15:21:00,
2013-01-24 10:26:00,65.4,51.2,30.31,NNE,21,0.0,10.0,60,0.00,,---,0.00,VWS V13.01,2013-01-24 15:26:00,
2013-01-24 10:31:00,65.9,50.7,30.31,NNE,19,0.0,5.0,58,0.00,,---,0.00,VWS V13.01,2013-01-24 15:31:00,
2013-01-24 10:36:00,66.3,49.2,30.31,NNW,340,3.0,5.0,54,0.00,,---,0.00,VWS V13.01,2013-01-24 15:36:00,
2013-01-24 10:42:00,66.5,48.3,30.31,North,355,0.0,6.0,52,0.00,,---,0.00,VWS V13.01,2013-01-24 15:42:00,
2013-01-24 10:47:00,66.9,48.2,30.31,North,5,3.0,10.0,51,0.00,,---,0.00,VWS V13.01,2013-01-24 15:47:00,
2013-01-24 10:52:00,67.2,48.5,30.31,North,360,0.0,10.0,51,0.00,,---,0.00,VWS V13.01,2013-01-24 15:52:00,
2013-01-24 10:57:00,67.1,47.3,30.31,North,5,0.0,10.0,49,0.00,,---,0.00,VWS V13.01,2013-01-24 15:57:00,
2013-01-24 11:02:00,67.2,46.9,30.31,NNE,16,0.0,4.0,48,0.00,,---,0.00,VWS V13.01,2013-01-24 16:02:00,
2013-01-24 11:07:00,67.5,48.2,30.30,NNE,13,0.0,5.0,50,0.00,,---,0.00,VWS V13.01,2013-01-24 16:07:00,
2013-01-24 11:12:00,67.5,48.2,30.30,North,355,0.0,5.0,50,0.00,,---,0.00,VWS V13.01,2013-01-24 16:12:00,
2013-01-24 11:17:00,67.8,48.0,30.30,North,5,0.0,6.0,49,0.00,,---,0.00,VWS V13.01,2013-01-24 16:17:00,
2013-01-24 11:23:00,68.1,48.8,30.30,North,9,3.0,6.0,50,0.00,,---,0.00,VWS V13.01,2013-01-24 16:23:00,
2013-01-24 11:28:00,68.7,48.8,30.29,North,5,0.0,6.0,49,0.00,,---,0.00,VWS V13.01,2013-01-24 16:28:00,
2013-01-24 11:33:00,68.5,48.6,30.29,NNW,345,4.0,4.0,49,0.00,,---,0.00,VWS V13.01,2013-01-24 16:33:00,
2013-01-24 11:38:00,68.5,49.2,30.29,NNW,344,0.0,4.0,50,0.00,,---,0.00,VWS V13.01,2013-01-24 16:38:00,
2013-01-24 11:43:00,69.1,48.6,30.29,North,355,0.0,6.0,48,0.00,,---,0.00,VWS V13.01,2013-01-24 16:43:00,
2013-01-24 11:48:00,69.5,48.4,30.29,NNE,21,1.0,6.0,47,0.00,,---,0.00,VWS V13.01,2013-01-24 16:48:00,
2013-01-24 11:53:00,70.2,50.2,30.29,NNE,16,1.0,6.0,49,0.00,,---,0.00,VWS V13.01,2013-01-24 16:53:00,
2013-01-24 11:58:00,70.3,49.1,30.29,North,355,4.0,7.0,47,0.00,,---,0.00,VWS V13.01,2013-01-24 16:58:00,
2013-01-24 12:03:00,70.1,48.4,30.29,North,9,0.0,11.0,46,0.00,,---,0.00,VWS V13.01,2013-01-24 17:03:00,
2013-01-24 12:08:00,70.3,49.1,30.29,North,355,0.0,11.0,47,0.00,,---,0.00,VWS V13.01,2013-01-24 17:08:00,
2013-01-24 12:13:00,70.5,49.3,30.28,NNW,346,2.0,11.0,47,0.00,,---,0.00,VWS V13.01,2013-01-24 17:13:00,
2013-01-24 12:18:00,70.7,49.5,30.28,NNW,341,2.0,11.0,47,0.00,,---,0.00,VWS V13.01,2013-01-24 17:18:00,
2013-01-24 12:23:00,70.7,48.9,30.28,North,5,0.0,11.0,46,0.00,,---,0.00,VWS V13.01,2013-01-24 17:23:00,
2013-01-24 12:28:00,70.5,48.8,30.28,North,360,0.0,11.0,46,0.00,,---,0.00,VWS V13.01,2013-01-24 17:28:00,
2013-01-24 12:33:00,70.6,48.8,30.28,NW,324,3.0,7.0,46,0.00,,---,0.00,VWS V13.01,2013-01-24 17:33:00,
2013-01-24 12:38:00,70.2,49.6,30.28,North,355,2.0,9.0,48,0.00,,---,0.00,VWS V13.01,2013-01-24 17:38:00,
2013-01-24 12:43:00,70.4,48.7,30.27,NNE,15,2.0,9.0,46,0.00,,---,0.00,VWS V13.01,2013-01-24 17:43:00,
2013-01-24 12:48:00,70.3,48.0,30.27,North,5,0.0,9.0,45,0.00,,---,0.00,VWS V13.01,2013-01-24 17:48:00,
2013-01-24 12:54:00,70.2,47.9,30.27,NNE,18,2.0,9.0,45,0.00,,---,0.00,VWS V13.01,2013-01-24 17:54:00,
2013-01-24 12:59:00,70.3,49.1,30.26,North,360,7.0,11.0,47,0.00,,---,0.00,VWS V13.01,2013-01-24 17:59:00,
2013-01-24 13:04:00,69.8,48.7,30.26,North,5,3.0,8.0,47,0.00,,---,0.00,VWS V13.01,2013-01-24 18:04:00,
2013-01-24 13:09:00,69.8,48.7,30.26,North,5,2.0,8.0,47,0.00,,---,0.00,VWS V13.01,2013-01-24 18:09:00,
2013-01-24 13:14:00,70.1,48.4,30.25,NNE,13,4.0,9.0,46,0.00,,---,0.00,VWS V13.01,2013-01-24 18:14:00,
2013-01-24 13:19:00,70.0,48.9,30.25,North,5,5.0,9.0,47,0.00,,---,0.00,VWS V13.01,2013-01-24 18:19:00,
2013-01-24 13:24:00,70.1,49.0,30.25,NNW,331,5.0,11.0,47,0.00,,---,0.00,VWS V13.01,2013-01-24 18:24:00,
2013-01-24 13:29:00,69.8,48.7,30.25,North,351,3.0,4.0,47,0.00,,---,0.00,VWS V13.01,2013-01-24 18:29:00,
2013-01-24 13:34:00,69.9,49.3,30.25,NNE,30,9.0,9.0,48,0.00,,---,0.00,VWS V13.01,2013-01-24 18:34:00,
2013-01-24 13:40:00,70.2,50.2,30.25,NE,47,3.0,9.0,49,0.00,,---,0.00,VWS V13.01,2013-01-24 18:40:00,
2013-01-24 13:45:00,69.9,50.4,30.25,NNW,339,3.0,10.0,50,0.00,,---,0.00,VWS V13.01,2013-01-24 18:45:00,
2013-01-24 13:50:00,69.6,50.2,30.25,NE,43,0.0,11.0,50,0.00,,---,0.00,VWS V13.01,2013-01-24 18:50:00,
2013-01-24 13:55:00,69.4,49.4,30.24,North,355,4.0,11.0,49,0.00,,---,0.00,VWS V13.01,2013-01-24 18:55:00,
2013-01-24 14:00:00,69.4,50.0,30.25,North,5,1.0,6.0,50,0.00,,---,0.00,VWS V13.01,2013-01-24 19:00:00,
2013-01-24 14:05:00,69.6,50.2,30.24,NNE,31,3.0,12.0,50,0.00,,---,0.00,VWS V13.01,2013-01-24 19:05:00,
2013-01-24 14:10:00,69.4,50.5,30.24,North,355,0.0,12.0,51,0.00,,---,0.00,VWS V13.01,2013-01-24 19:10:00,
2013-01-24 14:15:00,69.4,51.5,30.24,NNE,16,0.0,12.0,53,0.00,,---,0.00,VWS V13.01,2013-01-24 19:15:00,
2013-01-24 14:20:00,69.8,51.9,30.23,North,355,4.0,12.0,53,0.00,,---,0.00,VWS V13.01,2013-01-24 19:20:00,
2013-01-24 14:25:00,69.6,51.7,30.23,NW,323,5.0,12.0,53,0.00,,---,0.00,VWS V13.01,2013-01-24 19:25:00,
2013-01-24 14:30:00,69.5,52.2,30.23,North,5,0.0,3.0,54,0.00,,---,0.00,VWS V13.01,2013-01-24 19:30:00,
2013-01-24 14:35:00,69.9,50.4,30.23,North,5,6.0,12.0,50,0.00,,---,0.00,VWS V13.01,2013-01-24 19:35:00,
2013-01-24 14:40:00,69.5,51.6,30.23,NNW,331,0.0,12.0,53,0.00,,---,0.00,VWS V13.01,2013-01-24 19:40:00,
2013-01-24 14:45:00,69.1,51.3,30.23,North,350,5.0,12.0,53,0.00,,---,0.00,VWS V13.01,2013-01-24 19:45:00,
2013-01-24 14:51:00,68.7,51.9,30.23,NNW,338,2.0,12.0,55,0.00,,---,0.00,VWS V13.01,2013-01-24 19:51:00,
2013-01-24 14:56:00,68.4,51.6,30.23,NNW,330,0.0,12.0,55,0.00,,---,0.00,VWS V13.01,2013-01-24 19:56:00,
2013-01-24 15:01:00,68.3,52.0,30.23,NNW,339,3.0,5.0,56,0.00,,---,0.00,VWS V13.01,2013-01-24 20:01:00,
2013-01-24 15:06:00,68.0,52.2,30.23,NNW,344,1.0,7.0,57,0.00,,---,0.00,VWS V13.01,2013-01-24 20:06:00,
2013-01-24 15:11:00,68.1,52.3,30.23,NNE,14,0.0,7.0,57,0.00,,---,0.00,VWS V13.01,2013-01-24 20:11:00,
2013-01-24 15:16:00,68.1,52.3,30.23,North,360,3.0,9.0,57,0.00,,---,0.00,VWS V13.01,2013-01-24 20:16:00,
2013-01-24 15:21:00,68.0,52.7,30.23,North,355,4.0,12.0,58,0.00,,---,0.00,VWS V13.01,2013-01-24 20:21:00,
2013-01-24 15:26:00,67.7,52.9,30.23,North,355,0.0,12.0,59,0.00,,---,0.00,VWS V13.01,2013-01-24 20:26:00,
2013-01-24 15:31:00,67.6,53.2,30.23,North,355,1.0,2.0,60,0.00,,---,0.00,VWS V13.01,2013-01-24 20:31:00,
2013-01-24 15:36:00,67.6,52.8,30.23,West,279,3.0,7.0,59,0.00,,---,0.00,VWS V13.01,2013-01-24 20:36:00,
2013-01-24 15:41:00,67.4,53.0,30.23,NNW,331,5.0,7.0,60,0.00,,---,0.00,VWS V13.01,2013-01-24 20:41:00,
2013-01-24 15:46:00,67.3,53.4,30.23,NW,304,2.0,7.0,61,0.00,,---,0.00,VWS V13.01,2013-01-24 20:46:00,
2013-01-24 15:51:00,67.0,53.6,30.23,North,350,0.0,7.0,62,0.00,,---,0.00,VWS V13.01,2013-01-24 20:51:00,
2013-01-24 15:57:00,66.7,53.7,30.23,North,11,3.0,10.0,63,0.00,,---,0.00,VWS V13.01,2013-01-24 20:57:00,
2013-01-24 16:02:00,66.6,54.1,30.23,North,355,2.0,6.0,64,0.00,,---,0.00,VWS V13.01,2013-01-24 21:02:00,
2013-01-24 16:07:00,66.5,54.0,30.23,NNW,336,0.0,7.0,64,0.00,,---,0.00,VWS V13.01,2013-01-24 21:07:00,
2013-01-24 16:12:00,66.4,53.9,30.23,NNE,17,0.0,7.0,64,0.00,,---,0.00,VWS V13.01,2013-01-24 21:12:00,
2013-01-24 16:17:00,66.1,54.4,30.23,NNW,329,2.0,10.0,66,0.00,,---,0.00,VWS V13.01,2013-01-24 21:17:00,
2013-01-24 16:22:00,65.9,54.7,30.23,North,11,0.0,10.0,67,0.00,,---,0.00,VWS V13.01,2013-01-24 21:22:00,
2013-01-24 16:27:00,65.9,55.0,30.23,NNE,17,0.0,10.0,68,0.00,,---,0.00,VWS V13.01,2013-01-24 21:27:00,
2013-01-24 16:32:00,65.8,55.0,30.23,North,350,0.0,5.0,68,0.00,,---,0.00,VWS V13.01,2013-01-24 21:32:00,
2013-01-24 16:37:00,65.6,55.2,30.23,NNW,346,4.0,5.0,69,0.00,,---,0.00,VWS V13.01,2013-01-24 21:37:00,
2013-01-24 16:42:00,65.5,55.1,30.24,NNE,14,3.0,6.0,69,0.00,,---,0.00,VWS V13.01,2013-01-24 21:42:00,
2013-01-24 16:47:00,65.2,55.2,30.23,NNW,341,1.0,9.0,70,0.00,,---,0.00,VWS V13.01,2013-01-24 21:47:00,
2013-01-24 16:53:00,65.1,55.5,30.23,North,355,1.0,9.0,71,0.00,,---,0.00,VWS V13.01,2013-01-24 21:53:00,
2013-01-24 16:58:00,65.0,55.4,30.23,NNW,339,9.0,11.0,71,0.00,,---,0.00,VWS V13.01,2013-01-24 21:58:00,
2013-01-24 17:03:00,64.7,55.1,30.23,North,350,0.0,12.0,71,0.00,,---,0.00,VWS V13.01,2013-01-24 22:03:00,
2013-01-24 17:08:00,64.5,55.3,30.23,WNW,290,0.0,12.0,72,0.00,,---,0.00,VWS V13.01,2013-01-24 22:08:00,
2013-01-24 17:13:00,64.2,55.4,30.23,North,355,0.0,12.0,73,0.00,,---,0.00,VWS V13.01,2013-01-24 22:13:00,
2013-01-24 17:18:00,64.1,55.7,30.23,NNW,338,0.0,12.0,74,0.00,,---,0.00,VWS V13.01,2013-01-24 22:18:00,
2013-01-24 17:23:00,64.0,55.6,30.23,NNW,338,0.0,12.0,74,0.00,,---,0.00,VWS V13.01,2013-01-24 22:23:00,
2013-01-24 17:28:00,63.9,55.5,30.23,NNW,342,0.0,12.0,74,0.00,,---,0.00,VWS V13.01,2013-01-24 22:28:00,
2013-01-24 17:33:00,63.8,55.7,30.23,NNE,18,0.0,5.0,75,0.00,,---,0.00,VWS V13.01,2013-01-24 22:33:00,
2013-01-24 17:38:00,63.7,55.6,30.23,North,5,0.0,5.0,75,0.00,,---,0.00,VWS V13.01,2013-01-24 22:38:00,
2013-01-24 17:43:00,63.5,55.4,30.23,North,5,0.0,5.0,75,0.00,,---,0.00,VWS V13.01,2013-01-24 22:43:00,
2013-01-24 17:48:00,63.3,55.6,30.23,North,5,0.0,5.0,76,0.00,,---,0.00,VWS V13.01,2013-01-24 22:48:00,
2013-01-24 17:53:00,63.1,55.4,30.23,North,5,0.0,5.0,76,0.00,,---,0.00,VWS V13.01,2013-01-24 22:53:00,
2013-01-24 17:58:00,62.9,55.6,30.23,North,5,0.0,5.0,77,0.00,,---,0.00,VWS V13.01,2013-01-24 22:58:00,
2013-01-24 18:03:00,62.7,55.4,30.23,North,5,0.0,0.0,77,0.00,,---,0.00,VWS V13.01,2013-01-24 23:03:00,
2013-01-24 18:08:00,62.4,55.5,30.23,North,5,0.0,0.0,78,0.00,,---,0.00,VWS V13.01,2013-01-24 23:08:00,
2013-01-24 18:13:00,62.2,55.3,30.23,North,5,0.0,0.0,78,0.00,,---,0.00,VWS V13.01,2013-01-24 23:13:00,
2013-01-24 18:18:00,61.9,55.3,30.23,North,5,0.0,0.0,79,0.00,,---,0.00,VWS V13.01,2013-01-24 23:18:00,
2013-01-24 18:24:00,61.6,55.0,30.23,North,5,0.0,0.0,79,0.00,,---,0.00,VWS V13.01,2013-01-24 23:24:00,
2013-01-24 18:28:00,61.4,55.2,30.23,North,5,0.0,0.0,80,0.00,,---,0.00,VWS V13.01,2013-01-24 23:28:00,
2013-01-24 18:34:00,61.1,54.9,30.23,North,5,0.0,0.0,80,0.00,,---,0.00,VWS V13.01,2013-01-24 23:34:00,
2013-01-24 18:39:00,60.8,54.6,30.23,North,5,0.0,0.0,80,0.00,,---,0.00,VWS V13.01,2013-01-24 23:39:00,
2013-01-24 18:44:00,60.5,54.7,30.24,North,5,0.0,0.0,81,0.00,,---,0.00,VWS V13.01,2013-01-24 23:44:00,
2013-01-24 18:49:00,60.2,54.0,30.23,North,5,0.0,0.0,80,0.00,,---,0.00,VWS V13.01,2013-01-24 23:49:00,
2013-01-24 18:54:00,59.9,53.7,30.24,North,5,0.0,0.0,80,0.00,,---,0.00,VWS V13.01,2013-01-24 23:54:00,
2013-01-24 18:59:00,59.6,53.8,30.24,North,5,0.0,0.0,81,0.00,,---,0.00,VWS V13.01,2013-01-24 23:59:00,
2013-01-24 19:04:00,59.3,53.1,30.24,North,5,0.0,0.0,80,0.00,,---,0.00,VWS V13.01,2013-01-25 00:04:00,
2013-01-24 19:09:00,58.9,53.1,30.24,North,5,0.0,0.0,81,0.00,,---,0.00,VWS V13.01,2013-01-25 00:09:00,
2013-01-24 19:14:00,58.6,53.1,30.24,North,5,0.0,0.0,82,0.00,,---,0.00,VWS V13.01,2013-01-25 00:14:00,
2013-01-24 19:19:00,58.2,52.4,30.24,North,5,0.0,0.0,81,0.00,,---,0.00,VWS V13.01,2013-01-25 00:19:00,
2013-01-24 19:25:00,57.8,52.0,30.24,North,5,0.0,0.0,81,0.00,,---,0.00,VWS V13.01,2013-01-25 00:25:00,
2013-01-24 19:30:00,57.6,52.5,30.25,North,5,0.0,0.0,83,0.00,,---,0.00,VWS V13.01,2013-01-25 00:30:00,
2013-01-24 19:35:00,57.4,52.6,30.25,North,5,0.0,0.0,84,0.00,,---,0.00,VWS V13.01,2013-01-25 00:35:00,
2013-01-24 19:40:00,57.2,52.7,30.25,North,5,0.0,0.0,85,0.00,,---,0.00,VWS V13.01,2013-01-25 00:40:00,
2013-01-24 19:45:00,57.0,52.9,30.25,North,5,0.0,0.0,86,0.00,,---,0.00,VWS V13.01,2013-01-25 00:45:00,
2013-01-24 19:50:00,56.8,52.3,30.25,North,5,0.0,0.0,85,0.00,,---,0.00,VWS V13.01,2013-01-25 00:50:00,
2013-01-24 19:55:00,56.5,52.0,30.24,North,5,0.0,0.0,85,0.00,,---,0.00,VWS V13.01,2013-01-25 00:55:00,
2013-01-24 20:00:00,56.3,51.9,30.24,North,5,0.0,0.0,85,0.00,,---,0.00,VWS V13.01,2013-01-25 01:00:00,
2013-01-24 20:05:00,56.1,52.0,30.24,North,5,0.0,0.0,86,0.00,,---,0.00,VWS V13.01,2013-01-25 01:05:00,
2013-01-24 20:11:00,55.9,51.8,30.25,North,5,0.0,0.0,86,0.00,,---,0.00,VWS V13.01,2013-01-25 01:11:00,
2013-01-24 20:16:00,55.8,52.0,30.25,North,5,0.0,0.0,87,0.00,,---,0.00,VWS V13.01,2013-01-25 01:16:00,
2013-01-24 20:21:00,55.7,51.9,30.25,North,5,0.0,0.0,87,0.00,,---,0.00,VWS V13.01,2013-01-25 01:21:00,
2013-01-24 20:26:00,55.4,51.6,30.25,North,5,0.0,0.0,87,0.00,,---,0.00,VWS V13.01,2013-01-25 01:26:00,
2013-01-24 20:31:00,55.2,51.1,30.25,North,5,0.0,0.0,86,0.00,,---,0.00,VWS V13.01,2013-01-25 01:31:00,
2013-01-24 20:36:00,55.0,50.9,30.25,North,5,0.0,0.0,86,0.00,,---,0.00,VWS V13.01,2013-01-25 01:36:00,
2013-01-24 20:41:00,54.8,50.7,30.25,North,5,0.0,0.0,86,0.00,,---,0.00,VWS V13.01,2013-01-25 01:41:00,
2013-01-24 20:46:00,54.6,50.8,30.25,North,5,0.0,0.0,87,0.00,,---,0.00,VWS V13.01,2013-01-25 01:46:00,
2013-01-24 20:51:00,54.5,50.7,30.25,North,5,0.0,0.0,87,0.00,,---,0.00,VWS V13.01,2013-01-25 01:51:00,
2013-01-24 20:56:00,54.5,51.0,30.25,North,5,0.0,0.0,88,0.00,,---,0.00,VWS V13.01,2013-01-25 01:56:00,
2013-01-24 21:01:00,54.5,51.3,30.25,North,5,0.0,0.0,89,0.00,,---,0.00,VWS V13.01,2013-01-25 02:01:00,
2013-01-24 21:06:00,54.4,50.9,30.25,North,5,0.0,0.0,88,0.00,,---,0.00,VWS V13.01,2013-01-25 02:06:00,
2013-01-24 21:11:00,54.3,50.8,30.25,North,5,0.0,0.0,88,0.00,,---,0.00,VWS V13.01,2013-01-25 02:11:00,
2013-01-24 21:17:00,54.3,51.1,30.25,North,5,0.0,0.0,89,0.00,,---,0.00,VWS V13.01,2013-01-25 02:17:00,
2013-01-24 21:22:00,54.2,51.0,30.25,North,5,0.0,0.0,89,0.00,,---,0.00,VWS V13.01,2013-01-25 02:22:00,
2013-01-24 21:27:00,54.2,51.3,30.25,North,5,0.0,0.0,90,0.00,,---,0.00,VWS V13.01,2013-01-25 02:27:00,
2013-01-24 21:32:00,54.2,51.3,30.25,North,5,0.0,0.0,90,0.00,,---,0.00,VWS V13.01,2013-01-25 02:32:00,
2013-01-24 21:37:00,54.3,51.4,30.25,North,5,0.0,0.0,90,0.00,,---,0.00,VWS V13.01,2013-01-25 02:37:00,
2013-01-24 21:42:00,54.2,51.3,30.25,North,5,0.0,0.0,90,0.00,,---,0.00,VWS V13.01,2013-01-25 02:42:00,
2013-01-24 21:47:00,54.1,51.2,30.25,North,5,0.0,0.0,90,0.00,,---,0.00,VWS V13.01,2013-01-25 02:47:00,
2013-01-24 21:52:00,54.0,51.1,30.25,North,5,0.0,0.0,90,0.00,,---,0.00,VWS V13.01,2013-01-25 02:52:00,
2013-01-24 21:57:00,53.9,51.0,30.25,North,5,0.0,0.0,90,0.00,,---,0.00,VWS V13.01,2013-01-25 02:57:00,
2013-01-24 22:03:00,53.8,50.9,30.25,North,5,0.0,0.0,90,0.00,,---,0.00,VWS V13.01,2013-01-25 03:03:00,
2013-01-24 22:08:00,53.8,50.9,30.25,North,5,0.0,0.0,90,0.00,,---,0.00,VWS V13.01,2013-01-25 03:08:00,
2013-01-24 22:13:00,53.6,50.7,30.25,North,5,0.0,0.0,90,0.00,,---,0.00,VWS V13.01,2013-01-25 03:13:00,
2013-01-24 22:18:00,53.7,51.1,30.25,North,5,0.0,0.0,91,0.00,,---,0.00,VWS V13.01,2013-01-25 03:18:00,
2013-01-24 22:23:00,53.7,51.1,30.25,North,5,0.0,0.0,91,0.00,,---,0.00,VWS V13.01,2013-01-25 03:23:00,
2013-01-24 22:28:00,53.6,51.0,30.25,North,5,0.0,0.0,91,0.00,,---,0.00,VWS V13.01,2013-01-25 03:28:00,
2013-01-24 22:33:00,53.4,50.5,30.25,North,5,0.0,0.0,90,0.00,,---,0.00,VWS V13.01,2013-01-25 03:33:00,
2013-01-24 22:38:00,53.2,50.3,30.25,North,5,0.0,0.0,90,0.00,,---,0.00,VWS V13.01,2013-01-25 03:38:00,
2013-01-24 22:43:00,53.1,50.2,30.25,North,5,0.0,0.0,90,0.00,,---,0.00,VWS V13.01,2013-01-25 03:43:00,
2013-01-24 22:48:00,53.0,50.5,30.25,North,5,0.0,0.0,91,0.00,,---,0.00,VWS V13.01,2013-01-25 03:48:00,
2013-01-24 22:54:00,53.0,50.5,30.26,North,5,0.0,0.0,91,0.00,,---,0.00,VWS V13.01,2013-01-25 03:54:00,
2013-01-24 22:59:00,52.9,50.3,30.26,North,5,0.0,0.0,91,0.00,,---,0.00,VWS V13.01,2013-01-25 03:59:00,
2013-01-24 23:04:00,52.8,50.2,30.25,North,5,0.0,0.0,91,0.00,,---,0.00,VWS V13.01,2013-01-25 04:04:00,
2013-01-24 23:09:00,52.8,50.2,30.25,North,5,0.0,0.0,91,0.00,,---,0.00,VWS V13.01,2013-01-25 04:09:00,
2013-01-24 23:14:00,52.8,50.2,30.25,North,5,0.0,0.0,91,0.00,,---,0.00,VWS V13.01,2013-01-25 04:14:00,
2013-01-24 23:19:00,52.7,50.2,30.25,North,5,0.0,0.0,91,0.00,,---,0.00,VWS V13.01,2013-01-25 04:19:00,
2013-01-24 23:24:00,52.7,50.2,30.25,North,5,0.0,0.0,91,0.00,,---,0.00,VWS V13.01,2013-01-25 04:24:00,
2013-01-24 23:29:00,52.7,50.2,30.25,North,5,0.0,0.0,91,0.00,,---,0.00,VWS V13.01,2013-01-25 04:29:00,
2013-01-24 23:34:00,52.6,50.0,30.25,North,5,0.0,0.0,91,0.00,,---,0.00,VWS V13.01,2013-01-25 04:34:00,
2013-01-24 23:39:00,52.5,50.0,30.25,North,5,0.0,0.0,91,0.00,,---,0.00,VWS V13.01,2013-01-25 04:39:00,
2013-01-24 23:44:00,52.4,49.8,30.25,North,5,0.0,0.0,91,0.00,,---,0.00,VWS V13.01,2013-01-25 04:44:00,
2013-01-24 23:50:00,52.4,49.8,30.25,North,5,0.0,0.0,91,0.00,,---,0.00,VWS V13.01,2013-01-25 04:50:00,
2013-01-24 23:55:00,52.5,50.0,30.25,North,5,0.0,0.0,91,0.00,,---,0.00,VWS V13.01,2013-01-25 04:55:00,